カタログに戻る

FENGYUN 1C DEB

運用中PO
NORAD 30658·DEBRIS·🇨🇳 China

打ち上げ May 10, 1999 から Taiyuan Satellite Launch Center

Loading…

次のパス (今後24時間)

TLE

最新Source: Space-Track

元期: Sep 13, 2026, 11:21 UTC

1 30658U 99025APQ 26256.47297220  .00001370  00000-0  10333-2 0  9994
2 30658  98.4219 267.4194 0180628 190.4211 169.3184 13.88281091984951

AllMySatでFENGYUN 1C DEBをリアルタイム追跡

Download on the App Store